Weather in Kagizman

Turkey     40°09′26″N   43°08′03″E
temp.,
°C
wind,
m/s
gust,
m/s
humid.,
%
clouds,
%
prec.,
mm/h
press.,
hPa
HPBL,
m
8 march, mon
mon800:00−3wnw11808 0.0 102022
03:00−4e118739 0.0 101831
06:00−2s0093100 1.2 101759
09:00−1se249193 1.6 1015356
12:00+1se357999 0.6 1013640
15:00−2wnw488899 6.8 1011412
18:00−4wnw348669 0.3 101550
21:00−6nw348034 0.3 101946
9 march, tue
tue900:00−7nw33810 0.0 101973
03:00−8wnw33800 0.0 102075
06:00−9wnw33800 0.0 102176
09:00−7wnw34770 0.0 1021171
12:00−4w34690 0.0 1019350
15:00−4wnw346927 0.0 1018374
18:00−7wnw33720 0.0 102161
21:00−8wnw34710 0.0 102485
10 march, wed
wed1000:00−9wnw44760 0.0 102583
03:00−9wnw45740 0.0 102691
06:00−10wnw34720 0.0 102765
09:00−7wnw34690 0.0 1026144
12:00−5wnw33660 0.0 1023232
15:00−4wnw227216 0.0 1020209
18:00−6nw237999 0.0 102155
21:00−5wnw3375100 0.0 102171
11 march, thu
thu1100:00−5wnw2377100 0.0 101957
03:00−6wnw2380100 0.0 101855
06:00−6nw2285100 0.0 101647
09:00−4wnw128499 0.0 1015121
12:00−1wnw227899 0.0 1011295
15:00−1wnw2284100 0.0 1008234
18:00−3w2289100 0.0 100831
21:00−3nw3487100 0.1 1009120
12 march, fri
fri1200:00−3wnw229499 0.4 100862
03:00−3nw129499 0.8 100643
06:00−5nnw2392100 2.7 1007226
09:00−5n2583100 4.4 1010620
12:00−6nnw4584100 1.8 1013657
15:00−7nnw4872100 2.5 1016953
18:00−9nw2370100 0.1 1021368
21:00−12nnw336899 0.1 102794